1st Responders/1st Detectors/Storm Spotters Weather Summary for Powell County, KY

Forecast Maps


Reg. NEXRAD Animation


National Fire Danger: Day 1 & 2 Map

Current NWS Watch/Warnings

SPC Convective Day 1 Outlook


Day 2 Outlook

(Click images to enlarge|Page will refresh every 5 minutes)
UK Ag. Weather Center Desktop Severe Weather Service[HERE]
Powell County, KY Hazardous Weather Outlook Webcast
(9 AM to 9 PM Mon-Fri)
[Fast]
[Dial-up]


UKAWC 1st Detectors/1st Responders Precision Weather Forecast For POWELL County, Kentucky
(based on the NWS County Digital Forecast)

ISSUED AT 13:00 UTC ON FRIDAY SEP 18 2020
DAY FRIDAY
EDT 3HR 10A 11A NOON 1P 2P 3P 4P 5P 6P 7P
MAX/MIN -- -- -- -- -- -- -- -- -- 70°
TEMP 63° 65° 67° 67° 68° 68° 70° 68° 67° 65°
SKY COVER 30% 25% 23% 21% 19% 19% 18% 17% 16% 15%
Clouds
DEW PT 54° 54° 54° 54° 52° 52° 52° 52° 52° 49°
RH 72% 70% 63% 61% 54% 56% 55% 54% 59% 58%
POP 12HR -- -- -- -- -- -- -- -- -- --
RAIN/SNOW (liq.equ) -- -- -- -- 0.00in -- -- -- -- --
SNOWFALL -- -- -- -- 0in -- -- -- -- --
WIND SPEED(MPH) 7 7 7 7 8 8 8 7 7 6
WIND Gust(MPH) 15 15 16 15 15 15 15 15 15 15
WIND DIR N N N N N N N N N N
DEW -- -- -- -- -- -- -- -- -- --
HeatIndex 63 65 67 67 68 68 70 68 67 65
Fog -- -- -- -- -- -- -- -- -- --
WIND CHILL -- -- -- -- -- -- -- -- -- --
SPRAY COND
DRY COND
LIVESTOCK HEATSTRESS 62.35 63.98 65.33 65.24 65.67 65.77 67.23 65.67 65.15 63.57



DAY SATURDAY SUNDAY MONDAY TUESDAY WEDNESDAY THURSDAY
EDT 6HR 8P 9P 10P 11P MIDN 1A 2A 3A 4A 5A 6A 7A 8A 9A 10A 11A NOON 1P 2P 3P 4P 5P 6P 7P 8P 9P 11P 2A 5A 8A 11A 2P 5P 8P 2A 8A 2P 8P 2A 8A 2P 8P 2A 8A 2P 8P 2A 8A 2P 8P
MAX/MIN -- -- -- -- -- -- -- -- -- -- -- -- 41° -- -- -- -- -- -- -- -- -- -- 70° -- -- -- -- -- 43° -- -- 72° -- -- 45° 72° -- -- 43° 74° -- -- 47° 79° -- -- 52° 79° --
TEMP 61° 58° 56° 52° 49° 47° 47° 45° 43° 43° 41° 43° 43° 49° 56° 59° 63° 65° 67° 68° 68° 68° 65° 63° 59° 56° 52° 49° 45° 45° 61° 70° 72° 61° 50° 47° 72° 61° 49° 45° 72° 61° 50° 49° 77° 67° 56° 54° 79° 68°
SKY COVER 14% 11% 9% 6% 4% 2% 0% 0% 0% 0% 0% 0% 0% 0% 0% 0% 0% 0% 0% 1% 2% 3% 3% 2% 2% 1% 1% 1% 1% 1% 1% 1% 1% 1% 1% 1% 2% 4% 4% 6% 7% 7% 7% 6% 5% 8% 7% 7% 9% 19%
Clouds
DEW PT 49° 49° 47° 45° 45° 43° 41° 41° 41° 40° 40° 40° 41° 43° 45° 45° 47° 49° 47° 47° 47° 47° 45° 47° 45° 45° 43° 40° 38° 38° 45° 47° 47° 45° 41° 40° 43° 45° 43° 41° 47° 49° 47° 45° 52° 56° 52° 50° 58° 58°
RH 65% 72% 74% 77% 82% 86% 82% 89% 92% 92% 96% 89% 92% 76% 66% 59% 58% 56% 50% 46% 45% 44% 48% 55% 60% 63% 68% 71% 76% 76% 58% 41% 41% 57% 71% 76% 36% 58% 82% 89% 40% 64% 88% 89% 42% 70% 86% 89% 48% 67%
POP 12HR 0% -- -- -- -- -- -- -- -- -- -- -- 0% -- -- -- -- -- -- -- -- -- -- -- 0% -- -- -- -- 1% -- -- -- 1% -- 1% -- 1% -- 2% -- 3% -- 3% -- 3% -- 3% -- 10%
RAIN/SNOW (liq.equ) 0.00in -- -- -- -- -- 0.00in -- -- -- -- -- 0.00in -- -- -- -- -- 0.00in -- -- -- -- -- 0.00in -- -- 0.00in -- 0.00in -- 0.00in -- 0.00in 0.00in 0.00in -- -- -- -- -- -- -- -- -- -- -- -- -- --
SNOWFALL 0in -- -- -- -- -- 0in -- -- -- -- -- 0in -- -- -- -- -- 0in -- -- -- -- -- 0in -- -- 0in -- 0in -- 0in -- 0in 0in 0in -- -- -- -- -- -- -- -- -- -- -- -- -- --
WIND SPEED(MPH) 5 5 5 5 5 1 1 0 0 0 0 0 0 2 2 5 5 6 6 6 6 5 5 2 5 2 1 1 1 1 5 6 7 5 1 1 6 2 0 0 1 0 0 0 2 1 0 0 6 2
WIND DIR N N N N N NE NE NE NE NE NE NE NE NE NE NE NE NE NE NE NE NE NE NE NE NE NE NE NE NE NE E NE NE E E E E E N N N N N W W SW S W W
HeatIndex 61 58 56 52 49 47 47 45 43 43 41 43 43 49 56 59 63 65 67 68 68 68 65 63 59 56 52 49 45 45 61 70 72 61 50 47 72 61 49 45 72 61 50 49 77 67 56 54 79 68
Fog -- -- -- -- -- -- -- -- -- -- -- -- -- -- -- -- -- -- -- -- -- -- -- -- -- -- -- -- -- -- -- -- -- -- -- -- -- -- Areas of Areas of -- -- Areas of Areas of -- -- Patchy Areas of -- --
WIND CHILL -- -- -- -- -- -- -- -- -- -- -- -- -- -- -- -- -- -- -- -- -- -- -- -- -- -- -- -- -- -- -- -- -- -- -- -- -- -- -- -- -- -- -- -- -- -- -- -- -- --
SPRAY COND
DRY COND
LIVESTOCK HEATSTRESS 60.58 58.12 56.40 52.86 49.97 47.91 48.17 45.83 43.70 43.70 41.39 43.96 43.70 50.29 56.52 58.95 62.03 63.50 64.75 65.27 65.22 65.17 63.23 61.96 58.96 56.57 53.20 50.56 46.82 46.82 60.49 66.37 67.72 60.48 51.40 48.56 67.35 60.49 49.97 45.83 67.64 60.56 50.58 49.59 71.19 65.65 56.22 54.29 73.22 66.33

Click on individual weather variable above in left-hand column (ie., TEMP, RH, QPF 12HR) to view state forecast maps






NWS 48 Hr. Forecast Maps,

Regional Hourly Observations For POWELL County, Kentucky
Issued at 800 AM EDT FRI SEP 18 2020
NORTHEAST KENTUCKY
  
CITY           SKY/WX    TMP DP  RH WIND       PRES   REMARKS
LEXINGTON      CLOUDY    57  52  83 N12       30.11R                  
COVINGTON      FAIR      55  46  71 NE16      30.15R                  
FRANKFORT      FAIR      58  50  75 N7        30.12R                  


Current NOWCAST not available:
Nowcasts are not issued routinely during fair weather. Only when
precipitation or other significant weather is occuring in this county will these
forecasts be issued. Currently, there is no short term forecast in effect.


Fire Weather Forecast For POWELL County, KY
Provided by the National Weather Service:

Issued at: Fri Sep 18 09:05:01 EDT 2020

700 AM EDT Fri Sep 18 2020

                      Today        Tonight      Sat          

Cloud Cover           Pcldy        Mclear       Clear        
Chance precip (%)     0            0            0            
Precip type           None         None         None         
Temp (24H TREND)      69 (-7)      43 (-12)     69           
Rh % (24H TREND)      51 (-16)     100 (+2)     39           
20ftwnd-AM(mph)       N 4-8 G16                 NE 2-6 G13   
20ftwnd-PM(mph)       N 4-8 G16    N 2-6 G13    NE 3-7       
Precip duration                                              
Precip begin                                                 
Precip end                                                   
Precip amount         0.00         0.00         0.00         
LAL                   1            1            1            
Haines Index (MID)    2                         3            
Mixing hgt(ft-AGL)    4800                      4200         
Transport wnd (mph)   N 14                      NE  9        
Vent rate (kt-ft)     57657                     32905        
ADI Early             43 Gen Good  5 Very Poor  33 Fair      
ADI Late              54 Gen Good  6 Very Poor  36 Fair      
Max LVORI Early       5            4            5            
Max LVORI Late        3            5            3            

Remarks...None.

SPC's Fire Weather Web Tool (Excellent!), SPC's Fire Weather Outlooks, NWS Fire Weather WEB, Fire Danger Class Map,
Keetch-Byram Drought Index, ROMAN Web, Haines Index ,
WFAS's 10-hr Dead Fuel Moist., WFAS's 100-hr Dead Fuel Moist., Probablity of Ignition, Visual blackness Map, Palmer Drought Index, HPC's Rainfall Forecast Maps


Hazardous Weather Outlook For POWELL County, Kentucky
315 AM EDT Fri Sep 18 2020

 DAY ONE  Today and Tonight.

No hazardous weather is expected at this time. 

 DAYS TWO THROUGH SEVEN  Saturday through Thursday.

No hazardous weather is expected at this time.

 SPOTTER INFORMATION STATEMENT  

Spotter activation is not anticipated.

Latest POWELL County, Kentucky Watches, Warnings and Advisories.
Additional Drought Info.: UKAWC Drought Page, Kentucky Drought Watch


7-Day Forecast For POWELL County, KY

TODAY
Sunny. Highs around 70. Light winds becoming north around 10 mph in the afternoon.

TONIGHT
Cold, clear. Patchy valley fog near dawn. Lows in the mid 40s. Light winds.

SATURDAY
Sunny. Patchy valley fog early. Highs around 70. Light winds.

SATURDAY NIGHT
Cold, clear. Areas of valley fog late. Lows in the mid 40s. Light winds.

SUNDAY
Sunny. Highs in the lower 70s. Light winds.

SUNDAY NIGHT
Clear. Lows in the mid 40s.

MONDAY
Sunny. Highs in the lower 70s.

MONDAY NIGHT
Cold. Mostly clear. Areas of valley fog. Lows in the mid 40s.

TUESDAY
Sunny. Highs in the mid 70s.

TUESDAY NIGHT
Mostly clear. Areas of valley fog. Lows in the upper 40s.

WEDNESDAY
Sunny. Highs in the upper 70s.

WEDNESDAY NIGHT
Mostly clear. Areas of valley fog. Lows in the lower 50s.

THURSDAY
Sunny. Highs in the upper 70s.

Ag Weather Center, Department of Biosystems & Agricultural Engineering, University of Kentucky